Погода в Фьюмичино

Италия     41°46′22″N   12°13′59″E
темп.,
°C
ветер,
м/с
пор.,
м/с
влажн.,
%
обл.,
%
осадки,
мм/ч
давл.,
гПа
погр.,
м
20 сентября, пн
пн2023:00+23зюз911590 0.0 10141015
02:00+23з8106410 0.0 10131357
05:00+23зюз57617 0.0 10121141
08:00+23з12575 0.0 1013871
11:00+24зюз33560 0.0 10141074
14:00+24юз44581 0.0 10141145
17:00+24юз455995 0.0 10141095
20:00+24з3460100 0.0 10151016
21 сентября, вт
вт2123:00+24юз456498 0.0 1016959
02:00+23юз556610 0.0 10171032
05:00+22вюв12674 0.0 1016527
08:00+22в44710 0.0 1018336
11:00+24юв22593 0.0 10191071
14:00+24зюз43621 0.0 1019709
17:00+24зсз55620 0.0 1018647
20:00+24сз66600 0.0 1019443
22 сентября, ср
ср2223:00+23сз4561100 0.0 1020372
02:00+21ссв4563100 0.0 1020191
05:00+20св456895 0.0 1019183
08:00+19св44690 0.0 1020196
11:00+23св12520 0.0 1020448
14:00+24зюз435560 0.0 1019642
17:00+24з55575 0.0 1017508
20:00+23зсз676127 0.0 1017428
23 сентября, чт
чт2323:00+23сз34615 0.0 1017261
02:00+21св455434 0.0 1017166
05:00+21всв46665 0.0 1017352
08:00+22юв356512 0.0 1018437
11:00+23ююз11575 0.0 1019881
14:00+23юз43595 0.0 1018773
17:00+23юз43565 0.0 1018610
20:00+23юз23595 0.0 1018508
24 сентября, пт
пт2423:00+22ююв11592 0.0 1018321
02:00+21св22680 0.0 1018137
05:00+20всв22684 0.0 1018137
08:00+20всв33670 0.0 1018174
11:00+23ююв33600 0.0 1019546
14:00+24ю55556 0.0 1018668
17:00+24ю555848 0.0 1017641
20:00+24ююв5662100 0.0 1018519